User: anonymous   Login
Location: *
(45.1333°S, 169.6333°W)
Time: 00:19:37
(UTC+00:00)
Language:

CZ-2C R/B - Orbit

View from above orbital plane
View from above orbital plane
View from above satellite
View from above satellite

Ground track
Ground track

The orbit data is extracted from the following two-line orbital elements,

1 28480U 04046B   22225.52375679  .00000078  00000-0  44085-4 0  9993
2 28480  98.0682 208.7858 0142799  53.4901 307.9335 14.25846484922570
Epoch (UTC): 13 August 2022 12:34:12
Eccentricity: 0.0142799
inclination: 98.0682°
perigee height: 703 km
apogee height: 908 km
right ascension of ascending node: 208.7858°
argument of perigee: 53.4901°
revolutions per day: 14.25846484
mean anomaly at epoch: 307.9335°
orbit number at epoch: 92257

The dashed part of the orbit path shows where the satellite is in the earth's shadow,  

DLR